When you browse on this site, cookies collect data to enhance your experience and personalize the content and advertising you see.
Visit our Privacy Policy to learn more. By continuing to use the site, you agree to this use of cookies and data.
  • En España
  • Lista de países
  • Para 7 días
  • Temperatura del agua
  • Mapa Satelital
  • El tiempo en el mapa
  • Informadores
  • user-avatar
    Iniciar sesión

    Tiempo cada hora Rijeka

    Hoy, 19 Junio, Miércoles

    Tiempo Temperatura Precipitaciones Viento Presión Humedad
    00:00 +21°C° 0 mm 1 mps 751 mmHg 90%
    01:00 +21°C° 0 mm 1 mps 751 mmHg 88%
    02:00 +21°C° 0 mm 1 mps 751 mmHg 88%
    03:00 +20°C° 0 mm 1 mps 751 mmHg 88%
    04:00 +20°C° 0 mm 1 mps 751 mmHg 87%
    05:00 +22°C° 0 mm 1 mps 751 mmHg 85%
    06:00 +21°C° 0 mm 0 mps 751 mmHg 82%
    07:00 +23°C° 0 mm 0 mps 751 mmHg 80%
    08:00 +24°C° 0.1 mm 0 mps 751 mmHg 74%
    09:00 +28°C° 0.1 mm 1 mps 751 mmHg 67%
    10:00 +29°C° 0.1 mm 1 mps 751 mmHg 61%
    11:00 +28°C° 1.4 mm 1 mps 751 mmHg 66%
    12:00 +28°C° 1.4 mm 1 mps 750 mmHg 71%
    13:00 +27°C° 1.4 mm 1 mps 750 mmHg 76%
    14:00 +28°C° 0.8 mm 1 mps 750 mmHg 73%
    15:00 +28°C° 0.8 mm 1 mps 750 mmHg 70%
    16:00 +28°C° 0.8 mm 1 mps 750 mmHg 67%
    17:00 +27°C° 0 mm 1 mps 749 mmHg 73%
    18:00 +26°C° 0 mm 1 mps 749 mmHg 79%
    19:00 +23°C° 0 mm 0 mps 749 mmHg 85%
    20:00 +22°C° 0 mm 0 mps 750 mmHg 87%
    21:00 +21°C° 0 mm 0 mps 750 mmHg 89%
    22:00 +19°C° 0 mm 0 mps 750 mmHg 91%
    23:00 +21°C° 0.1 mm 1 mps 750 mmHg 90%

    Mañana, 20 Junio, Jueves

    Tiempo Temperatura Precipitaciones Viento Presión Humedad
    00:00 +21°C° 0.1 mm 1 mps 750 mmHg 90%
    01:00 +21°C° 0.1 mm 1 mps 750 mmHg 89%
    02:00 +21°C° 0 mm 1 mps 750 mmHg 89%
    03:00 +21°C° 0 mm 1 mps 750 mmHg 88%
    04:00 +21°C° 0 mm 1 mps 750 mmHg 87%
    05:00 +22°C° 0 mm 1 mps 750 mmHg 83%
    06:00 +22°C° 0 mm 0 mps 750 mmHg 80%
    07:00 +23°C° 0 mm 0 mps 750 mmHg 76%
    08:00 +27°C° 0 mm 1 mps 750 mmHg 69%
    09:00 +28°C° 0 mm 1 mps 750 mmHg 61%
    10:00 +30°C° 0 mm 1 mps 750 mmHg 54%
    11:00 +30°C° 0.2 mm 2 mps 750 mmHg 56%
    12:00 +29°C° 0.2 mm 2 mps 750 mmHg 58%
    13:00 +29°C° 0.2 mm 2 mps 750 mmHg 60%
    14:00 +29°C° 0.3 mm 2 mps 749 mmHg 61%
    15:00 +29°C° 0.3 mm 1 mps 749 mmHg 61%
    16:00 +29°C° 0.3 mm 1 mps 749 mmHg 62%
    17:00 +28°C° 0 mm 1 mps 749 mmHg 69%
    18:00 +26°C° 0 mm 1 mps 749 mmHg 77%
    19:00 +25°C° 0 mm 1 mps 749 mmHg 84%
    20:00 +24°C° 0 mm 1 mps 750 mmHg 85%
    21:00 +23°C° 0 mm 1 mps 750 mmHg 86%
    22:00 +21°C° 0 mm 1 mps 750 mmHg 87%
    23:00 +21°C° 0 mm 1 mps 750 mmHg 86%

    Pasado mañana, 21 Junio, Viernes

    Tiempo Temperatura Precipitaciones Viento Presión Humedad
    00:00 +21°C° 0 mm 1 mps 751 mmHg 84%
    01:00 +21°C° 0 mm 1 mps 751 mmHg 82%
    02:00 +21°C° 0 mm 1 mps 751 mmHg 80%
    03:00 +21°C° 0 mm 1 mps 751 mmHg 79%
    04:00 +20°C° 0 mm 1 mps 751 mmHg 77%
    05:00 +22°C° 0 mm 1 mps 752 mmHg 73%
    06:00 +24°C° 0 mm 1 mps 752 mmHg 70%
    07:00 +24°C° 0 mm 0 mps 752 mmHg 66%
    08:00 +27°C° 0 mm 1 mps 752 mmHg 60%
    09:00 +28°C° 0 mm 1 mps 752 mmHg 54%
    10:00 +29°C° 0 mm 1 mps 753 mmHg 48%
    11:00 +30°C° 0 mm 1 mps 752 mmHg 47%
    12:00 +30°C° 0 mm 2 mps 752 mmHg 45%
    13:00 +30°C° 0 mm 2 mps 752 mmHg 44%
    14:00 +30°C° 0 mm 2 mps 752 mmHg 46%
    15:00 +30°C° 0 mm 2 mps 751 mmHg 48%
    16:00 +29°C° 0 mm 2 mps 751 mmHg 50%
    17:00 +28°C° 0 mm 1 mps 751 mmHg 59%
    18:00 +26°C° 0 mm 1 mps 751 mmHg 68%
    19:00 +23°C° 0 mm 0 mps 751 mmHg 78%
    20:00 +24°C° 0 mm 1 mps 751 mmHg 75%
    21:00 +23°C° 0 mm 1 mps 752 mmHg 72%
    22:00 +22°C° 0 mm 1 mps 752 mmHg 69%
    23:00 +22°C° 0 mm 1 mps 752 mmHg 67%

    22 Junio, Sábado

    Tiempo Temperatura Precipitaciones Viento Presión Humedad
    00:00 +21°C° 0 mm 1 mps 752 mmHg 64%
    01:00 +21°C° 0 mm 1 mps 752 mmHg 62%
    02:00 +21°C° 0 mm 1 mps 752 mmHg 63%
    03:00 +21°C° 0 mm 1 mps 751 mmHg 64%
    04:00 +21°C° 0 mm 1 mps 751 mmHg 65%
    05:00 +23°C° 0 mm 1 mps 751 mmHg 59%
    06:00 +25°C° 0 mm 1 mps 751 mmHg 59%
    07:00 +26°C° 0 mm 1 mps 752 mmHg 58%
    08:00 +28°C° 0 mm 1 mps 752 mmHg 54%
    09:00 +29°C° 0 mm 1 mps 751 mmHg 50%
    10:00 +30°C° 0 mm 1 mps 751 mmHg 46%
    11:00 +30°C° 0 mm 2 mps 751 mmHg 45%
    12:00 +30°C° 0 mm 2 mps 751 mmHg 44%
    13:00 +30°C° 0 mm 3 mps 751 mmHg 43%
    14:00 +30°C° 0 mm 2 mps 750 mmHg 46%
    15:00 +29°C° 0 mm 2 mps 750 mmHg 48%
    16:00 +29°C° 0 mm 2 mps 750 mmHg 50%
    17:00 +27°C° 0 mm 2 mps 750 mmHg 59%
    18:00 +26°C° 0 mm 1 mps 750 mmHg 67%
    19:00 +25°C° 0 mm 1 mps 750 mmHg 75%
    20:00 +24°C° 0 mm 1 mps 750 mmHg 73%
    21:00 +23°C° 0 mm 1 mps 750 mmHg 70%
    22:00 +22°C° 0 mm 1 mps 751 mmHg 68%
    23:00 +22°C° 0 mm 1 mps 751 mmHg 68%

    23 Junio, Domingo

    Tiempo Temperatura Precipitaciones Viento Presión Humedad
    00:00 +22°C° 0 mm 1 mps 751 mmHg 69%
    01:00 +22°C° 0 mm 1 mps 751 mmHg 69%
    02:00 +21°C° 0 mm 1 mps 751 mmHg 71%
    03:00 +21°C° 0 mm 1 mps 751 mmHg 72%
    04:00 +21°C° 0 mm 1 mps 751 mmHg 74%
    05:00 +23°C° 0 mm 1 mps 752 mmHg 71%
    06:00 +25°C° 0 mm 1 mps 752 mmHg 68%
    07:00 +24°C° 0 mm 0 mps 752 mmHg 65%
    08:00 +28°C° 0 mm 1 mps 752 mmHg 60%
    09:00 +29°C° 0 mm 1 mps 753 mmHg 55%
    10:00 +30°C° 0 mm 1 mps 753 mmHg 50%
    11:00 +31°C° 0 mm 1 mps 753 mmHg 49%
    12:00 +31°C° 0 mm 2 mps 753 mmHg 48%
    13:00 +31°C° 0 mm 2 mps 753 mmHg 47%
    14:00 +31°C° 0 mm 2 mps 753 mmHg 50%
    15:00 +31°C° 0 mm 2 mps 752 mmHg 52%
    16:00 +30°C° 0 mm 2 mps 752 mmHg 54%
    17:00 +29°C° 0 mm 1 mps 752 mmHg 63%
    18:00 +27°C° 0 mm 1 mps 753 mmHg 72%
    19:00 +24°C° 0 mm 0 mps 753 mmHg 81%
    20:00 +25°C° 0 mm 1 mps 753 mmHg 82%
    21:00 +24°C° 0 mm 1 mps 754 mmHg 83%
    22:00 +23°C° 0 mm 1 mps 754 mmHg 85%
    23:00 +23°C° 0 mm 1 mps 754 mmHg 85%

    24 Junio, Lunes

    Tiempo Temperatura Precipitaciones Viento Presión Humedad
    00:00 +23°C° 0 mm 1 mps 755 mmHg 85%
    01:00 +23°C° 0 mm 1 mps 755 mmHg 85%
    02:00 +23°C° 0 mm 2 mps 755 mmHg 86%
    03:00 +23°C° 0 mm 2 mps 755 mmHg 88%
    04:00 +21°C° 0 mm 2 mps 755 mmHg 89%
    05:00 +23°C° 0 mm 2 mps 756 mmHg 86%
    06:00 +25°C° 0 mm 2 mps 756 mmHg 83%
    07:00 +26°C° 0 mm 2 mps 756 mmHg 79%
    08:00 +27°C° 0 mm 2 mps 756 mmHg 72%
    09:00 +28°C° 0 mm 2 mps 757 mmHg 66%
    10:00 +30°C° 0 mm 2 mps 757 mmHg 59%
    11:00 +31°C° 0 mm 2 mps 757 mmHg 56%
    12:00 +31°C° 0 mm 1 mps 757 mmHg 54%
    13:00 +32°C° 0 mm 1 mps 757 mmHg 51%
    14:00 +32°C° 0 mm 1 mps 756 mmHg 53%
    15:00 +31°C° 0 mm 1 mps 756 mmHg 54%
    16:00 +31°C° 0 mm 1 mps 756 mmHg 55%
    17:00 +29°C° 0 mm 1 mps 756 mmHg 63%
    18:00 +28°C° 0 mm 2 mps 756 mmHg 70%
    19:00 +26°C° 0 mm 2 mps 757 mmHg 78%
    20:00 +25°C° 0 mm 2 mps 757 mmHg 81%
    21:00 +24°C° 0 mm 2 mps 757 mmHg 84%
    22:00 +23°C° 0 mm 2 mps 758 mmHg 87%
    23:00 +21°C° 0 mm 2 mps 758 mmHg 88%
    Mostrar más